| time (UTC) | temp C | wind direction | speed KPH | gust KPH | rain 1hr cm | rain 24hr cm | rain mn cm | humidity % | barometer mb |
| 20260509231523 | 20 | 124 | 0.0 | 1.6 | 0.00 | 2.90 | 2.90 | 87 | 1012.8 |
| 20260509230035 | 20 | 232 | 3.2 | 6.4 | 0.00 | 2.90 | 2.90 | 86 | 1012.9 |
| 20260509224522 | 20 | 202 | 1.6 | 4.8 | 0.00 | 2.90 | 2.90 | 87 | 1012.9 |
| 20260509223003 | 20 | 174 | 3.2 | 11.3 | 0.00 | 2.90 | 2.90 | 87 | 1012.6 |
| 20260509221506 | 20 | 151 | 3.2 | 6.4 | 0.00 | 2.90 | 2.90 | 88 | 1012.4 |
| 20260509220011 | 20 | 136 | 1.6 | 6.4 | 0.00 | 2.90 | 2.90 | 88 | 1012.2 |
| 20260509214517 | 20 | 159 | 1.6 | 6.4 | 0.00 | 2.95 | 2.90 | 88 | 1012.1 |
| 20260509213020 | 20 | 176 | 1.6 | 4.8 | 0.00 | 2.95 | 2.90 | 87 | 1012.0 |
| 20260509211505 | 20 | 139 | 0.0 | 3.2 | 0.00 | 2.95 | 2.90 | 89 | 1012.1 |
| 20260509210007 | 20 | 134 | 1.6 | 4.8 | 0.00 | 3.02 | 2.90 | 88 | 1012.3 |
| 20260509204511 | 20 | 174 | 0.0 | 1.6 | 0.00 | 3.10 | 2.90 | 88 | 1012.5 |
| 20260509203023 | 20 | 204 | 0.0 | 4.8 | 0.00 | 3.17 | 2.90 | 88 | 1012.6 |
| 20260509201521 | 20 | 169 | 0.0 | 3.2 | 0.00 | 3.28 | 2.90 | 88 | 1012.5 |
| 20260509200006 | 20 | 252 | 0.0 | 3.2 | 0.00 | 3.30 | 2.90 | 88 | 1012.5 |
| 20260509194514 | 20 | 269 | 0.0 | 8.0 | 0.00 | 3.38 | 2.90 | 87 | 1012.5 |
| 20260509193021 | 20 | 290 | 3.2 | 8.0 | 0.00 | 3.48 | 2.90 | 86 | 1012.8 |
| 20260509191520 | 20 | 68 | 0.0 | 8.0 | 0.00 | 3.56 | 2.90 | 87 | 1012.9 |
| 20260509190026 | 20 | 209 | 0.0 | 6.4 | 0.00 | 3.66 | 2.90 | 86 | 1012.8 |
| 20260509184505 | 20 | 243 | 1.6 | 8.0 | 0.00 | 3.71 | 2.90 | 86 | 1012.7 |
| 20260509183015 | 20 | 176 | 0.0 | 4.8 | 0.00 | 3.78 | 2.90 | 87 | 1012.7 |
| 20260509181517 | 20 | 273 | 1.6 | 4.8 | 0.00 | 3.89 | 2.90 | 87 | 1012.6 |
| 20260509180020 | 20 | 252 | 0.0 | 0.0 | 0.00 | 4.01 | 2.90 | 87 | 1012.5 |
| 20260509174524 | 20 | 256 | 0.0 | 0.0 | 0.00 | 4.06 | 2.90 | 89 | 1012.7 |
| 20260509173007 | 19 | 148 | 0.0 | 0.0 | 0.00 | 4.17 | 2.90 | 90 | 1012.7 |
| 20260509171514 | 19 | 257 | 0.0 | 0.0 | 0.00 | 4.39 | 2.90 | 90 | 1013.0 |
| 20260509170021 | 19 | 240 | 0.0 | 0.0 | 0.00 | 4.50 | 2.90 | 89 | 1013.6 |
| 20260509164523 | 19 | 150 | 0.0 | 0.0 | 0.00 | 4.60 | 2.90 | 91 | 1013.7 |
| 20260509163030 | 18 | 154 | 3.2 | 8.0 | 0.00 | 4.70 | 2.90 | 91 | 1014.0 |
| 20260509161528 | 18 | 143 | 0.0 | 1.6 | 0.00 | 4.80 | 2.90 | 94 | 1013.7 |
| 20260509160031 | 17 | 150 | 1.6 | 3.2 | 0.00 | 4.88 | 2.90 | 94 | 1013.6 |
| 20260509154518 | 17 | 174 | 1.6 | 3.2 | 0.00 | 4.90 | 2.90 | 94 | 1013.5 |
| 20260509153038 | 17 | 173 | 0.0 | 1.6 | 0.00 | 4.90 | 2.90 | 95 | 1013.3 |
| 20260509151524 | 17 | 23 | 0.0 | 1.6 | 0.00 | 4.90 | 2.90 | 95 | 1013.2 |
| 20260509150030 | 17 | 23 | 0.0 | 1.6 | 0.03 | 4.93 | 2.90 | 95 | 1013.2 |
| 20260509144527 | 17 | 23 | 0.0 | 3.2 | 0.10 | 4.93 | 2.90 | 95 | 1013.3 |
| 20260509143020 | 17 | 154 | 0.0 | 0.0 | 0.30 | 4.93 | 2.90 | 96 | 1013.1 |
| 20260509141533 | 17 | 145 | 0.0 | 1.6 | 0.48 | 4.93 | 2.90 | 95 | 1012.6 |
| 20260509140026 | 17 | 156 | 1.6 | 11.3 | 0.64 | 4.90 | 2.87 | 95 | 1012.5 |
| 20260509134528 | 17 | 144 | 4.8 | 12.9 | 0.69 | 4.83 | 2.79 | 95 | 1012.5 |
| 20260509133022 | 17 | 116 | 1.6 | 8.0 | 0.61 | 4.62 | 2.59 | 95 | 1012.9 |
| 20260509131523 | 17 | 153 | 3.2 | 4.8 | 0.53 | 4.45 | 2.41 | 95 | 1013.2 |
| 20260509130007 | 17 | 110 | 0.0 | 3.2 | 0.43 | 4.27 | 2.24 | 95 | 1013.7 |
| 20260509124510 | 17 | 321 | 0.0 | 0.0 | 0.64 | 4.14 | 2.11 | 95 | 1014.5 |
| 20260509123016 | 17 | 296 | 0.0 | 3.2 | 1.22 | 4.01 | 1.98 | 95 | 1014.6 |
| 20260509121518 | 17 | 323 | 1.6 | 4.8 | 1.80 | 3.91 | 1.88 | 95 | 1014.1 |
| 20260509120023 | 17 | 282 | 3.2 | 11.3 | 1.78 | 3.84 | 1.80 | 95 | 1013.7 |
| 20260509114504 | 17 | 329 | 3.2 | 9.7 | 1.47 | 3.51 | 1.47 | 95 | 1014.3 |
| 20260509113012 | 17 | 264 | 4.8 | 27.4 | 0.76 | 2.79 | 0.76 | 96 | 1014.9 |
| 20260509111514 | 17 | 300 | 11.3 | 20.9 | 0.08 | 2.11 | 0.08 | 96 | 1014.1 |
| 20260509110020 | 17 | 174 | 0.0 | 1.6 | 0.03 | 2.06 | 0.03 | 96 | 1012.0 |
| 20260509104526 | 17 | 113 | 0.0 | 1.6 | 0.00 | 2.03 | 0.00 | 96 | 1011.5 |
| 20260509103009 | 17 | 127 | 0.0 | 1.6 | 0.00 | 2.03 | 0.00 | 96 | 1011.3 |
| 20260509101515 | 17 | 56 | 0.0 | 3.2 | 0.00 | 2.03 | 0.00 | 96 | 1011.5 |
| 20260509100019 | 17 | 99 | 0.0 | 4.8 | 0.00 | 2.03 | 0.00 | 96 | 1011.2 |
| 20260509094523 | 17 | 335 | 0.0 | 4.8 | 0.00 | 2.03 | 0.00 | 96 | 1011.4 |
| 20260509093024 | 17 | 31 | 0.0 | 3.2 | 0.00 | 2.03 | 0.00 | 96 | 1011.2 |
| 20260509091512 | 17 | 174 | 1.6 | 3.2 | 0.00 | 2.03 | 0.00 | 96 | 1011.2 |
| 20260509090021 | 17 | 169 | 0.0 | 0.0 | 0.00 | 2.03 | 0.00 | 96 | 1010.9 |
| 20260509084522 | 17 | 46 | 0.0 | 0.0 | 0.00 | 2.03 | 0.00 | 96 | 1011.0 |
| 20260509083024 | 17 | 346 | 0.0 | 0.0 | 0.00 | 2.03 | 0.00 | 96 | 1011.4 |
| 20260509081528 | 17 | 332 | 0.0 | 0.0 | 0.00 | 2.03 | 0.00 | 96 | 1011.9 |
| 20260509080013 | 17 | 99 | 0.0 | 0.0 | 0.00 | 2.03 | 0.00 | 96 | 1011.8 |
| 20260509074516 | 17 | 295 | 0.0 | 0.0 | 0.00 | 2.03 | 0.00 | 96 | 1012.1 |
| 20260509073033 | 17 | 295 | 0.0 | 3.2 | 0.00 | 2.03 | 0.00 | 96 | 1012.2 |
| 20260509071524 | 17 | 39 | 0.0 | 0.0 | 0.00 | 2.03 | 0.00 | 96 | 1012.3 |
| 20260509070028 | 17 | 129 | 0.0 | 0.0 | 0.00 | 2.03 | 0.00 | 96 | 1011.9 |
| 20260509064514 | 17 | 129 | 0.0 | 0.0 | 0.00 | 2.03 | 0.00 | 96 | 1012.0 |
| 20260509063028 | 17 | 129 | 0.0 | 1.6 | 0.00 | 2.03 | 0.00 | 96 | 1012.1 |
| 20260509061520 | 17 | 117 | 0.0 | 1.6 | 0.00 | 2.03 | 0.00 | 96 | 1012.6 |
| 20260509060028 | 17 | 34 | 0.0 | 4.8 | 0.00 | 2.03 | 0.00 | 96 | 1012.8 |
| 20260509054527 | 17 | 119 | 0.0 | 0.0 | 0.00 | 2.03 | 0.00 | 96 | 1012.5 |
| 20260509053024 | 17 | 119 | 0.0 | 1.6 | 0.00 | 2.03 | 0.00 | 96 | 1012.8 |
| 20260509051521 | 17 | 156 | 0.0 | 3.2 | 0.00 | 2.03 | 0.00 | 96 | 1013.0 |
| 20260509050024 | 16 | 119 | 0.0 | 1.6 | 0.00 | 2.03 | 0.00 | 96 | 1012.9 |
| 20260509044524 | 16 | 174 | 0.0 | 3.2 | 0.00 | 2.03 | 2.03 | 96 | 1012.5 |
| 20260509043029 | 16 | 115 | 0.0 | 0.0 | 0.00 | 2.03 | 2.03 | 96 | 1012.7 |
| 20260509041517 | 16 | 134 | 0.0 | 0.0 | 0.00 | 2.03 | 2.03 | 95 | 1012.7 |
| 20260509040021 | 16 | 143 | 0.0 | 0.0 | 0.00 | 2.03 | 2.03 | 95 | 1012.8 |
| 20260509034524 | 16 | 174 | 0.0 | 0.0 | 0.00 | 2.03 | 2.03 | 96 | 1013.1 |
| 20260509033010 | 16 | 144 | 0.0 | 0.0 | 0.00 | 2.03 | 2.03 | 95 | 1013.1 |
| 20260509031514 | 16 | 158 | 0.0 | 0.0 | 0.00 | 2.03 | 2.03 | 95 | 1013.1 |
| 20260509030020 | 16 | 130 | 0.0 | 0.0 | 0.00 | 2.03 | 2.03 | 95 | 1012.7 |
| 20260509024524 | 16 | 110 | 0.0 | 0.0 | 0.00 | 2.03 | 2.03 | 95 | 1012.8 |
| 20260509023025 | 17 | 110 | 0.0 | 0.0 | 0.00 | 2.03 | 2.03 | 95 | 1012.5 |
| 20260509021510 | 17 | 59 | 0.0 | 0.0 | 0.00 | 2.03 | 2.03 | 95 | 1012.4 |
| 20260509020014 | 17 | 109 | 0.0 | 0.0 | 0.00 | 2.03 | 2.03 | 95 | 1012.4 |
| 20260509014526 | 17 | 283 | 0.0 | 1.6 | 0.00 | 2.03 | 2.03 | 95 | 1012.3 |
| 20260509013023 | 17 | 119 | 0.0 | 0.0 | 0.00 | 2.03 | 2.03 | 95 | 1012.0 |
| 20260509011526 | 17 | 122 | 0.0 | 3.2 | 0.00 | 2.03 | 2.03 | 95 | 1012.3 |
| 20260509010034 | 17 | 9 | 1.6 | 1.6 | 0.00 | 2.03 | 2.03 | 94 | 1012.7 |
| 20260509004530 | 17 | 297 | 1.6 | 3.2 | 0.00 | 2.03 | 2.03 | 94 | 1012.9 |
| 20260509003021 | 17 | 356 | 0.0 | 1.6 | 0.00 | 2.03 | 2.03 | 94 | 1012.9 |
| 20260509001526 | 17 | 313 | 0.0 | 0.0 | 0.00 | 2.03 | 2.03 | 94 | 1012.5 |
| 20260509000026 | 17 | 312 | 0.0 | 0.0 | 0.00 | 2.03 | 2.03 | 94 | 1012.5 |
| 20260508234530 | 17 | 311 | 0.0 | 1.6 | 0.00 | 2.03 | 2.03 | 94 | 1012.5 |
| 20260508233034 | 17 | 110 | 0.0 | 1.6 | 0.00 | 2.03 | 2.03 | 93 | 1012.9 |